Regional Weather Roundup
Issued by NWS Goodland, KS

Home | Current Version | Previous Version | Text Only | Print | Product List | Glossary Off
Versions: 1 2 3 4 5 6 7 8 9 10 11 12 13 14 15 16 17 18 19 20 21 22 23 24 25 26 27 28 29 30 31 32 33 34 35 36 37 38 39 40 41 42 43 44 45 46 47 48 49 50

000
ASUS43 KGLD 301108
RWRGLD

GOODLAND FORECAST AREA HOURLY WEATHER ROUNDUP
NATIONAL WEATHER SERVICE GOODLAND KS
500 AM MDT MON MAR 30 2015

...OFFICIAL OBSERVATIONS...

CITY           SKY/WX    TMP DP  RH WIND       PRES   REMARKS
GOODLAND KS    CLEAR     43  23  45 S17       30.11F
HILL CITY KS   CLEAR     42  17  36 SW5       30.14S
IMPERIAL NEB     N/A     38  21  50 SW8       30.08F
MCCOOK NEB     CLEAR     41  16  36 SW7       30.09F
AKRON CO       CLEAR     42  23  46 W14       30.09S
BURLINGTON CO  CLEAR     42  24  49 S13       30.12S
LIMON CO       CLEAR     26  20  77 N8        30.14F
$$

...UNOFFICIAL OBSERVATIONS...

CITY           SKY/WX    TMP DP  RH WIND       PRES   REMARKS
LENORA KS        N/A     44  32  63 MISG        N/A
TRIBUNE KS     CLEAR     39  30  70 S9        30.14F
$$


USA.gov is the U.S. government's official web portal to all federal, state and local government web resources and services.